Date,TemperatureHighF,TemperatureAvgF,TemperatureLowF,DewpointHighF,DewpointAvgF,DewpointLowF,HumidityHigh,HumidityAvg,HumidityLow,PressureMaxIn,PressureMinIn,WindSpeedMaxMPH,WindSpeedAvgMPH,GustSpeedMaxMPH,PrecipitationSumIn
2013-1-1,33.8,24.2,10.2,27.5,14.5,1.4,82,66,56,29.92,29.65,7,3,15,0.00
2013-1-2,22.5,10.6,1.1,13.1,2.5,-7.2,89,70,53,30.14,29.88,7,2,13,0.00
2013-1-3,16.1,6.3,0.0,1.1,-3.8,-8.2,85,63,45,30.16,29.99,6,1,11,0.00
2013-1-4,35.3,22.0,1.1,25.7,15.3,-2.1,91,76,60,29.98,29.77,6,1,14,0.03
2013-1-5,34.1,28.6,14.4,26.9,18.9,11.8,90,68,46,30.24,29.79,10,2,15,0.00
2013-1-6,37.8,25.5,14.3,29.3,21.3,11.7,95,84,70,30.21,29.91,3,0,5,0.03
2013-1-7,33.8,24.4,8.4,31.0,17.7,5.7,96,77,48,30.37,29.94,9,2,14,0.00
2013-1-8,43.3,22.9,4.0,24.7,15.6,1.0,90,76,45,30.38,30.24,5,1,11,0.04
2013-1-9,42.7,27.0,14.5,31.4,22.2,12.4,95,83,57,30.41,29.95,4,0,14,0.00
2013-1-10,41.9,38.3,30.9,33.2,27.1,23.5,82,64,56,30.52,29.98,13,4,21,0.01
2013-1-11,36.4,30.8,21.1,32.7,25.7,19.1,96,82,63,30.51,30.21,3,0,10,0.16
2013-1-12,38.3,35.0,33.4,37.5,34.2,32.2,97,97,95,30.21,30.11,0,0,2,0.04
2013-1-13,40.0,36.1,33.9,39.5,35.6,33.2,98,98,97,30.14,29.95,1,0,2,0.01
2013-1-14,56.0,40.9,35.1,51.9,34.2,25.3,99,79,44,30.25,29.84,5,1,13,0.01
2013-1-15,37.7,32.6,25.3,27.8,24.7,22.8,94,73,57,30.31,30.21,3,0,6,0.00
2013-1-16,31.2,29.4,28.1,29.1,27.2,24.3,96,92,81,30.23,29.78,1,0,4,0.01
2013-1-17,37.9,27.9,17.7,30.9,20.5,4.6,97,75,53,30.11,29.78,8,2,19,0.01
2013-1-18,20.5,11.9,4.1,6.2,-1.9,-8.6,87,55,38,30.40,30.07,8,2,16,0.00
2013-1-19,40.6,26.2,8.4,28.4,19.0,5.1,87,75,51,30.33,29.82,3,0,5,0.01
2013-1-20,46.8,30.9,21.3,34.4,20.4,3.0,95,68,38,29.91,29.49,9,2,19,0.01
2013-1-21,25.7,20.2,11.3,18.0,7.2,-1.5,92,59,42,30.04,29.80,6,1,13,0.00
2013-1-22,21.8,14.9,-2.9,17.2,7.2,-6.5,92,73,38,30.04,29.76,7,1,16,0.03
2013-1-23,7.7,0.8,-5.7,-2.7,-10.2,-14.0,85,61,39,30.14,30.03,9,2,16,0.00
2013-1-24,9.0,-2.3,-5.6,-8.5,-14.0,-15.8,64,57,44,30.16,30.11,7,2,23,0.00
2013-1-30,37.2,34.3,32.7,36.5,33.5,31.4,98,97,95,30.09,29.39,1,0,3,0.37
2013-1-31,54.9,39.9,28.2,54.6,30.4,10.5,99,71,46,29.49,28.85,8,4,16,0.97
2013-2-1,28.3,23.2,16.3,19.4,11.7,6.9,82,61,46,30.06,29.49,8,2,15,0.00
2013-2-2,24.6,19.1,11.2,15.5,9.5,4.3,81,66,49,30.19,30.03,4,1,6,0.00
2013-2-3,28.3,22.3,13.5,17.8,15.2,11.4,93,75,55,30.04,29.71,3,0,6,0.00
2013-2-4,28.1,21.6,16.6,17.4,7.7,0.9,87,56,34,29.88,29.70,8,2,21,0.00
2013-2-5,28.4,18.5,6.7,13.7,5.6,0.3,77,58,37,30.02,29.88,3,0,10,0.00
2013-2-6,36.0,25.0,16.3,23.2,14.6,-2.7,89,66,41,30.30,29.92,6,2,13,0.00
2013-2-7,23.4,17.1,8.9,2.0,-1.4,-3.7,62,44,32,30.54,30.29,6,1,10,0.00
2013-2-8,20.1,17.0,14.3,15.7,10.7,0.6,91,78,42,30.50,29.84,7,3,14,0.00
2013-2-9,19.7,16.5,13.1,18.0,11.5,2.8,93,81,58,30.22,29.77,14,6,22,0.00
2013-2-10,31.7,17.2,4.7,7.7,3.4,-1.9,88,57,32,30.43,30.23,6,1,10,0.18
2013-2-11,29.8,19.5,4.4,29.1,17.0,1.2,98,90,76,30.35,29.63,1,0,2,0.00
2013-2-12,42.5,35.9,28.0,33.1,28.9,26.5,97,77,59,29.82,29.60,8,2,14,0.32
2013-2-13,38.9,30.6,21.3,26.4,22.0,17.2,89,71,53,29.84,29.73,3,0,9,0.01
2013-2-14,40.3,28.5,22.0,25.1,21.3,19.0,91,76,47,29.97,29.70,5,1,11,0.00
2013-2-15,49.0,32.9,17.7,29.8,23.6,15.7,94,71,45,29.97,29.88,6,0,6,0.00
2013-2-16,37.6,31.9,24.9,27.6,20.8,6.0,88,65,44,29.96,29.75,8,2,13,0.00
2013-2-17,24.8,18.3,12.9,10.5,5.4,2.3,73,57,43,29.75,29.42,13,7,22,0.01
2013-2-18,27.4,18.9,10.8,3.7,0.3,-3.3,67,46,27,30.11,29.66,14,6,23,0.00
2013-2-19,39.8,28.5,13.7,32.7,15.6,-3.5,96,61,32,30.16,29.56,3,0,6,0.14
2013-2-20,34.8,30.1,24.0,33.9,23.5,15.4,97,77,61,29.69,29.51,6,2,18,0.03
2013-2-21,25.6,21.1,17.0,17.6,12.6,9.1,83,70,59,30.23,29.71,12,4,17,0.00
2013-2-22,39.1,29.7,15.7,25.3,20.5,13.1,93,70,47,30.41,30.23,8,1,14,0.00
2013-2-23,34.0,31.1,25.7,31.7,28.2,21.6,96,89,74,30.32,29.95,3,0,5,0.04
2013-2-24,35.0,32.5,30.4,33.2,31.2,29.3,96,95,92,29.96,29.75,1,0,3,0.18
2013-2-25,37.9,33.5,26.3,33.3,30.7,24.8,96,90,81,30.22,29.89,2,0,8,0.48
2013-2-26,39.2,34.7,31.0,33.9,31.5,29.5,97,88,78,30.33,30.17,2,0,3,0.11
2013-2-27,34.7,33.0,31.5,33.7,31.4,29.2,96,94,86,30.19,29.64,5,2,12,0.19
2013-2-28,43.4,35.6,29.5,37.5,33.3,28.3,97,91,78,29.64,29.53,3,0,5,0.54
2013-3-1,37.5,35.1,32.5,34.1,29.8,27.6,97,81,69,29.68,29.53,5,2,8,0.01
2013-3-2,38.9,33.6,28.8,29.1,26.9,25.0,88,77,64,29.68,29.62,6,2,14,0.00
2013-3-3,37.2,31.1,26.5,28.3,25.6,22.9,87,80,70,29.66,29.57,8,2,16,0.03
2013-3-4,34.2,29.2,26.1,25.2,22.6,20.9,81,76,67,29.78,29.59,15,6,18,0.00
2013-3-5,43.7,33.3,26.2,32.2,26.4,20.8,100,77,55,30.09,29.78,6,1,12,0.00
2013-3-6,36.5,34.3,31.9,33.1,30.1,26.6,94,85,73,30.19,30.08,5,2,11,0.02
2013-3-7,34.5,31.8,30.6,30.9,27.7,24.7,100,85,72,30.17,30.07,5,2,11,0.03
2013-3-8,43.3,34.4,27.6,30.6,27.6,22.2,94,77,51,30.21,30.02,3,0,6,0.15
2013-3-9,56.7,39.0,25.7,27.6,23.4,19.4,90,58,24,30.35,30.19,4,1,6,0.00
2013-3-10,47.5,34.3,19.5,31.0,25.9,17.8,95,74,47,30.40,30.27,4,1,8,0.00
2013-3-11,49.2,38.9,31.5,33.7,31.2,29.2,93,76,46,30.30,30.10,7,1,13,0.00
2013-3-12,48.5,40.4,33.5,48.2,39.5,30.6,100,96,89,30.11,29.69,4,0,10,1.05
2013-3-13,45.6,39.4,27.5,42.9,31.7,24.8,98,75,48,29.76,29.69,6,2,12,0.00
2013-3-14,32.8,27.6,18.6,26.5,18.2,6.6,93,68,50,29.83,29.67,8,3,16,0.00
2013-3-15,36.3,25.3,15.6,29.1,14.9,4.3,95,66,39,29.85,29.60,7,2,14,0.00
2013-3-16,32.4,27.2,19.7,23.2,15.3,10.7,82,62,44,29.88,29.69,5,2,11,0.05
2013-3-17,29.6,22.8,13.6,13.9,9.1,1.8,89,58,37,30.32,29.88,10,3,17,0.00
2013-3-18,36.5,23.9,8.5,23.1,6.0,0.4,81,49,27,30.45,30.24,3,1,6,0.00
2013-3-19,31.9,28.7,25.3,29.6,26.8,22.9,95,92,84,30.24,29.72,5,2,10,0.04
2013-3-20,-200.0,0.0,200.0,-99.9,-99.9,-99.9,0,0,100,29.76,29.72,0,-999,0,0.25
2013-3-21,39.2,14.6,9.2,20.8,-47.3,-99.9,94,24,36,29.76,29.59,4,-544,7,0.24
2013-3-22,37.1,15.2,25.7,22.4,-46.5,-99.9,76,25,44,29.70,29.60,5,-549,11,0.00
2013-3-23,38.4,15.0,30.0,23.5,-48.8,-99.9,74,24,47,29.75,29.61,10,-576,18,0.00
2013-3-24,42.3,16.5,34.1,26.5,-47.4,-99.9,70,24,49,29.82,29.74,8,-576,14,0.00
2013-3-25,42.7,17.1,20.9,30.8,-42.9,-99.9,95,29,54,29.78,29.55,5,-550,9,0.00
2013-3-26,46.7,20.0,33.8,30.1,-42.7,-99.9,85,22,35,29.77,29.58,6,-533,10,0.00
2013-3-27,47.2,19.6,36.1,30.2,-43.7,-99.9,62,23,46,29.87,29.74,7,-555,13,0.00
2013-3-28,45.8,12.2,39.0,34.9,-62.0,-99.9,84,20,59,29.94,29.87,4,-716,10,0.00
2013-3-29,49.7,29.0,44.8,38.2,-17.1,-99.9,77,38,54,30.04,29.97,5,-383,10,0.00
2013-3-30,52.0,21.7,34.6,30.9,-43.1,-99.9,84,19,27,30.08,30.00,7,-542,15,0.00
2013-3-31,55.4,30.9,30.7,38.1,-17.3,-99.9,95,32,30,30.10,29.76,9,-353,18,0.10
2013-4-1,52.8,40.6,31.1,43.1,34.2,14.6,97,80,41,29.76,29.47,7,2,17,0.74
2013-4-2,36.0,30.8,26.2,20.9,13.5,9.5,60,48,41,29.86,29.73,10,3,16,0.00
2013-4-3,42.5,33.5,25.2,16.5,12.8,8.9,61,43,26,30.12,29.85,9,3,17,0.00
2013-4-4,54.0,38.9,27.4,26.0,17.5,13.1,81,44,23,30.26,29.96,5,2,12,0.00
2013-4-5,54.7,39.9,29.6,29.8,26.1,21.6,87,61,31,29.97,29.68,8,3,17,0.00
2013-4-6,41.3,32.2,24.9,21.3,11.2,5.8,73,43,24,30.32,29.88,11,4,25,0.00
2013-4-7,56.8,39.2,22.9,37.5,24.1,16.2,84,58,31,30.32,29.93,11,3,19,0.00
2013-4-8,59.7,46.4,33.9,38.6,34.6,30.5,96,66,34,30.09,29.92,7,2,12,0.00
2013-4-9,59.3,47.1,38.5,48.1,41.3,34.0,97,82,53,30.07,29.88,8,1,12,0.23
2013-4-10,56.7,47.9,42.0,48.8,44.2,39.7,98,88,66,29.98,29.85,3,0,5,0.75
2013-4-11,45.0,42.3,38.4,43.6,31.3,18.4,96,68,39,30.15,29.86,5,1,11,0.02
2013-4-12,39.6,33.6,31.0,31.9,28.4,20.3,96,83,46,30.20,29.87,3,0,7,0.09
2013-4-13,51.4,39.4,32.5,41.3,35.4,31.3,96,86,59,29.92,29.78,2,0,6,0.43
2013-4-14,50.0,42.0,32.7,38.7,34.5,30.3,96,76,52,30.21,29.89,6,2,8,0.01
2013-4-15,58.2,43.4,28.5,36.3,32.3,26.9,96,69,40,30.36,30.21,5,1,10,0.00
2013-4-16,64.5,48.5,32.1,52.8,41.9,30.6,95,79,50,30.37,29.99,10,3,16,0.05
2013-4-17,60.6,51.8,37.9,53.1,35.2,28.2,95,55,35,30.33,30.00,9,3,15,0.00
2013-4-18,60.5,47.2,29.0,37.9,32.2,27.5,95,60,37,30.44,30.10,9,3,14,0.00
2013-4-19,70.8,55.6,50.0,58.0,48.1,32.7,92,77,48,30.11,29.77,11,3,12,0.00
2013-4-20,58.8,47.2,38.2,56.5,34.4,21.5,92,63,40,30.20,29.59,8,2,15,0.17
2013-4-21,49.8,38.9,33.3,23.5,20.5,18.3,62,48,30,30.54,30.21,7,3,12,0.00
2013-4-23,40.4,35.7,27.6,38.3,33.1,25.8,96,90,81,30.61,30.18,3,1,5,0.00
2013-4-24,75.1,57.2,39.6,50.1,43.2,37.1,95,65,27,30.18,29.72,6,2,10,0.00
2013-4-25,60.8,49.4,35.6,51.4,37.9,29.4,83,65,42,30.27,29.71,8,2,12,0.00
2013-4-26,58.2,44.9,28.8,39.7,32.5,27.0,94,66,35,30.42,30.28,4,1,6,0.00
2013-4-27,65.1,49.8,31.5,41.6,34.4,25.8,97,62,24,30.42,30.25,4,1,7,0.00
2013-4-28,70.1,51.5,32.5,40.9,36.7,31.0,100,62,30,30.32,30.16,6,1,12,0.00
2013-4-29,69.9,54.6,39.1,44.7,40.1,36.3,92,62,37,30.24,30.13,7,1,11,0.00
2013-4-30,71.3,59.5,45.5,42.8,38.1,30.0,78,48,28,30.34,30.22,5,1,7,0.00
2013-5-1,74.7,56.4,35.2,41.8,35.7,30.1,91,52,23,30.44,30.34,5,1,9,0.00
2013-5-2,78.7,56.2,38.6,46.7,38.9,27.6,95,58,26,30.50,30.31,6,1,10,0.00
2013-5-3,67.4,51.7,34.4,46.0,39.8,32.1,95,67,42,30.53,30.35,4,1,9,0.00
2013-5-4,72.0,53.9,39.1,49.2,39.9,27.9,98,65,20,30.36,30.22,6,1,9,0.00
2013-5-5,69.7,50.3,32.8,41.5,36.8,31.2,96,65,30,30.32,30.18,5,1,9,0.00
2013-5-6,74.2,55.0,35.2,47.6,38.6,30.8,98,63,22,30.25,30.09,4,1,9,0.00
2013-5-7,79.9,61.0,41.1,53.9,45.0,36.8,98,64,23,30.15,30.03,5,1,11,0.00
2013-5-8,72.9,60.3,47.1,64.1,56.0,46.0,98,87,56,30.19,30.04,6,1,10,0.17
2013-5-9,62.7,58.8,57.1,59.1,57.5,56.3,98,95,85,30.03,29.96,1,0,5,0.46
2013-5-11,65.0,61.8,56.8,63.1,60.3,56.0,98,95,91,29.68,29.64,6,2,10,0.22
2013-5-12,65.2,58.4,53.1,56.8,49.0,29.2,98,74,39,29.68,29.55,6,1,11,0.00
2013-5-13,52.5,46.5,40.4,35.7,32.0,29.3,83,58,43,30.04,29.89,7,2,11,0.00
2013-5-14,56.9,46.8,36.9,36.5,32.0,27.0,85,59,34,30.06,29.96,5,1,14,0.00
2013-5-15,65.1,47.2,30.3,49.6,38.4,28.8,96,76,33,30.04,29.65,9,2,17,0.12
2013-5-16,74.9,58.6,41.1,53.1,43.8,38.2,99,65,29,29.82,29.59,7,2,12,0.01
2013-5-17,64.7,53.4,43.2,44.5,41.2,37.6,94,66,38,30.21,29.82,6,2,13,0.00
2013-5-18,72.1,55.6,37.9,46.3,41.3,33.6,97,65,25,30.30,30.19,3,0,6,0.00
2013-5-19,67.2,53.3,41.0,56.1,48.7,39.9,97,86,56,30.33,30.18,5,1,10,0.42
2013-5-20,73.7,62.8,53.6,64.4,58.6,52.8,99,87,69,30.18,29.93,4,1,9,0.09
2013-5-21,71.6,58.2,50.7,64.2,56.0,49.3,98,93,73,30.09,29.88,4,1,11,0.57
2013-5-22,59.9,54.5,50.3,58.2,53.4,49.2,98,96,89,29.99,29.88,2,0,5,0.81
2013-5-23,67.7,59.0,51.2,66.8,58.1,50.7,99,97,91,29.92,29.74,4,0,5,0.33
2013-5-24,69.0,58.9,46.3,65.1,56.0,44.4,99,91,76,29.85,29.61,6,1,14,0.51
2013-5-25,46.9,44.1,34.9,45.1,42.0,33.5,95,92,84,29.84,29.74,6,2,12,1.18
2013-5-26,54.2,44.6,35.0,43.5,38.6,33.7,95,80,62,30.06,29.70,9,3,15,0.37
2013-5-27,66.9,52.0,34.1,44.3,38.7,33.1,98,66,30,30.18,30.06,5,1,11,0.00
2013-5-28,71.7,55.3,36.8,48.3,42.7,35.8,98,68,36,30.24,30.13,5,1,9,0.00
2013-5-29,57.2,53.8,49.0,56.4,52.5,45.5,99,95,87,30.16,29.99,1,0,2,0.29
2013-5-30,85.2,69.4,52.9,67.8,61.6,52.4,100,80,48,30.06,29.98,4,1,9,0.01
2013-5-31,90.4,73.8,57.8,70.3,63.3,57.2,100,74,38,30.06,29.89,5,1,13,0.00
2013-6-1,90.4,75.8,60.6,73.0,65.7,60.0,99,75,42,29.93,29.78,4,1,10,0.00
2013-6-2,87.8,72.7,63.8,73.1,66.9,62.9,99,84,53,29.81,29.61,8,2,11,0.50
2013-6-3,77.2,67.4,59.0,65.2,58.6,47.5,98,76,43,29.80,29.71,6,1,12,0.00
2013-6-4,65.6,56.9,45.8,48.4,44.5,40.6,88,64,45,30.08,29.79,5,2,13,0.00
2013-6-5,72.4,59.2,46.1,49.6,44.9,37.3,94,63,30,30.18,30.06,4,1,8,0.00
2013-6-6,70.8,61.0,49.0,55.9,49.9,42.5,90,69,45,30.18,30.07,4,1,9,0.00
2013-6-7,57.5,52.6,50.2,53.4,51.0,47.9,97,94,85,30.10,29.89,2,0,4,0.95
2013-6-8,70.6,60.5,51.4,61.9,56.3,50.6,98,87,72,30.00,29.69,4,1,9,0.70
2013-6-9,75.2,63.2,51.4,60.3,55.1,50.6,99,77,47,30.16,30.00,4,1,14,0.00
2013-6-10,68.4,59.5,50.3,60.2,55.5,49.4,99,87,66,30.19,30.01,2,0,5,0.22
2013-6-11,59.0,55.8,53.3,56.4,54.7,52.3,100,96,89,30.01,29.58,2,0,6,1.33
2013-6-12,67.1,59.8,54.1,58.0,54.3,52.2,98,83,65,29.81,29.55,6,2,13,0.03
2013-6-13,66.7,58.0,50.6,58.0,53.7,49.2,97,86,63,29.80,29.70,3,0,5,0.22
2013-6-14,75.8,63.0,52.8,58.6,53.3,46.9,98,74,39,29.77,29.67,3,0,6,0.01
2013-6-15,74.5,63.3,49.6,54.4,49.3,42.7,94,64,34,29.91,29.77,4,1,7,0.00
2013-6-16,73.5,59.9,47.0,61.8,55.0,46.2,98,86,53,29.91,29.68,6,1,9,0.02
2013-6-17,79.1,65.4,53.4,63.5,58.4,52.6,99,80,48,29.82,29.75,6,1,11,0.03
2013-6-19,71.7,59.3,46.8,55.5,49.0,43.9,98,73,38,30.02,29.92,4,1,0,0.00
2013-6-20,63.7,48.5,44.3,53.3,46.4,43.3,98,93,67,30.25,30.16,0,0,1,0.00
2013-6-22,81.8,69.2,53.8,70.6,62.0,53.0,98,79,55,30.20,30.07,4,0,9,0.01
2013-6-23,87.0,71.4,63.7,77.4,68.6,62.8,98,92,67,30.11,29.92,8,0,9,0.52
2013-6-24,86.6,72.6,64.8,72.7,67.9,64.2,99,87,56,29.97,29.91,5,1,11,0.01
2013-6-26,77.6,69.3,66.1,71.8,67.6,65.5,98,95,79,29.83,29.69,1,0,3,0.69
2013-6-27,72.1,66.0,62.0,68.7,64.7,61.4,99,96,87,29.83,29.75,2,0,6,0.03
2013-6-28,65.8,61.5,57.3,65.4,60.9,56.7,100,98,96,29.75,29.48,2,0,5,2.01
2013-6-29,81.1,70.6,63.3,72.6,66.8,63.0,100,89,63,29.66,29.49,6,1,9,0.33
2013-6-30,82.8,70.7,61.8,73.2,66.6,61.2,99,88,66,29.90,29.66,5,0,11,0.81
2013-7-1,77.9,70.8,64.8,72.0,68.6,64.3,99,93,77,30.03,29.90,1,0,3,0.20
2013-7-2,75.4,67.1,61.1,72.8,66.1,60.8,99,97,87,30.19,30.02,2,0,5,1.03
2013-7-3,85.1,71.3,60.6,75.6,67.1,60.0,99,88,62,30.18,30.07,4,1,7,0.00
2013-7-4,87.5,76.8,68.3,77.7,72.4,67.3,99,87,65,30.16,30.02,3,0,6,0.00
2013-7-5,90.6,77.8,68.4,75.7,71.4,67.8,99,83,51,30.11,29.98,4,0,7,0.01
2013-7-6,85.8,77.5,67.2,73.6,69.5,64.5,96,78,52,30.03,29.94,3,1,11,0.00
2013-7-7,87.0,75.4,65.9,76.3,69.0,64.7,98,82,55,29.99,29.88,2,0,3,0.17
2013-7-8,80.5,72.5,65.8,75.0,70.6,65.0,99,94,77,30.04,29.88,2,0,4,0.71
2013-7-9,74.6,68.5,65.2,69.6,66.6,64.5,98,94,84,30.09,30.03,2,0,3,0.00
2013-7-10,72.6,68.1,64.5,72.3,67.4,63.9,99,98,94,30.05,29.76,2,0,4,0.40
2013-7-11,80.5,72.5,63.4,73.5,68.0,60.3,100,87,63,29.95,29.73,2,0,6,0.00
2013-7-12,80.1,68.5,58.3,68.4,61.4,57.5,98,80,56,30.20,29.95,2,0,5,0.00
2013-7-13,77.0,68.0,58.3,70.2,64.2,57.5,100,88,69,30.31,30.20,2,0,5,0.03
2013-7-14,87.3,75.1,64.4,74.4,69.5,63.8,100,84,58,30.28,30.18,2,0,4,0.00
2013-7-15,90.1,77.1,66.6,74.6,69.0,65.1,98,79,46,30.19,30.08,3,0,5,0.00
2013-7-16,87.8,77.3,65.5,74.3,68.4,64.4,97,76,52,30.14,30.10,4,1,7,0.00
2013-7-17,90.5,78.4,65.2,75.6,70.0,64.5,99,78,51,30.15,29.93,3,0,5,0.01
2013-7-18,89.4,77.4,68.4,77.4,71.7,67.8,99,84,51,29.99,29.90,2,0,8,0.79
2013-7-19,91.2,78.6,69.1,76.7,72.4,68.6,99,83,54,29.91,29.66,7,1,12,0.25
2013-7-20,84.7,75.8,66.4,72.0,68.4,65.1,96,79,61,29.77,29.61,5,1,12,0.02
2013-7-21,80.7,71.7,63.7,68.4,64.3,59.9,97,79,55,29.97,29.77,1,0,3,0.00
2013-7-22,74.4,67.8,63.1,69.8,65.5,62.2,98,93,84,30.02,29.89,2,0,3,0.59
2013-7-23,76.5,66.6,62.5,69.9,65.0,61.9,99,95,77,29.89,29.52,1,0,3,2.09
2013-7-24,76.6,67.4,54.2,70.2,61.6,47.4,100,83,60,29.98,29.56,4,1,12,0.01
2013-7-25,71.0,60.6,48.1,61.7,54.0,46.6,96,80,60,30.10,29.98,2,0,4,0.00
2013-7-26,74.5,65.5,60.1,65.0,61.4,58.8,97,87,70,30.09,29.93,4,0,6,0.24
2013-7-27,82.0,69.6,58.2,68.1,60.8,56.7,96,76,45,30.02,29.95,3,0,6,0.00
2013-7-28,78.8,67.5,56.6,70.5,63.9,55.9,99,89,64,30.00,29.94,3,0,10,0.10
2013-7-29,80.6,69.7,62.8,71.2,66.0,61.7,99,89,61,30.03,29.92,5,1,7,0.00
2013-7-30,77.8,67.2,57.5,62.3,58.3,54.5,97,76,45,30.08,30.01,4,1,9,0.01
2013-7-31,80.5,67.6,55.1,66.0,59.1,53.8,99,77,40,30.13,30.00,2,0,4,0.00
2013-8-1,78.2,65.3,56.6,66.3,61.7,55.9,99,89,57,30.02,29.84,5,1,12,0.55
2013-8-2,79.1,68.9,59.4,67.5,61.9,56.2,99,81,46,29.84,29.75,3,0,10,0.04
2013-8-3,77.1,65.3,56.5,63.3,58.2,54.3,98,80,52,29.83,29.74,4,1,9,0.02
2013-8-4,72.8,62.4,53.5,62.0,56.4,52.7,98,82,57,29.88,29.78,3,1,6,0.10
2013-8-5,71.6,60.5,49.1,53.3,48.0,38.3,93,68,31,30.04,29.88,5,2,13,0.00
2013-8-6,76.9,60.8,45.9,59.8,52.4,44.8,98,77,47,30.14,30.04,3,0,6,0.00
2013-8-7,76.5,63.0,49.8,62.9,56.2,49.0,99,81,51,30.17,30.07,5,1,8,0.01
2013-8-8,80.4,69.6,61.0,71.2,65.5,59.4,97,88,70,30.09,29.95,4,1,8,0.03
2013-8-9,75.9,70.7,65.3,73.0,69.4,64.7,98,95,84,29.97,29.70,3,0,6,0.58
2013-8-10,76.6,68.5,54.1,67.1,58.6,49.9,99,74,42,30.00,29.75,5,1,13,0.01
2013-8-11,77.2,62.7,50.2,59.4,54.0,49.1,97,77,44,30.06,29.97,3,0,10,0.00
2013-8-12,78.9,65.5,54.4,62.2,57.7,53.5,98,78,50,30.01,29.89,2,0,6,0.01
2013-8-13,68.5,62.7,55.7,66.8,61.8,55.1,99,97,91,29.91,29.67,1,0,2,1.03
2013-8-14,70.5,62.9,55.7,65.2,55.8,50.5,99,79,57,29.92,29.64,5,1,13,0.03
2013-8-15,73.2,60.8,49.7,57.5,52.7,48.2,96,77,49,30.09,29.93,4,1,9,0.00
2013-8-16,76.3,62.2,48.7,62.4,54.8,48.0,99,79,48,30.18,30.08,3,0,6,0.00
2013-8-17,78.3,64.5,52.5,62.5,56.9,51.9,99,79,46,30.26,30.18,2,0,6,0.01
2013-8-18,76.3,64.4,53.1,65.5,58.9,52.4,99,84,58,30.26,30.06,2,0,5,0.00
2013-8-19,80.8,67.9,57.1,64.8,60.3,55.4,98,79,48,30.06,29.92,4,1,7,0.01
2013-8-20,83.8,70.1,59.0,66.6,62.1,58.2,98,79,47,30.07,29.96,2,0,5,0.00
2013-8-21,85.2,70.6,58.2,68.9,63.2,57.6,99,80,47,30.12,29.99,4,1,7,0.00
2013-8-22,84.9,72.9,60.5,70.9,64.7,59.6,98,78,47,30.00,29.78,4,1,6,0.03
2013-8-23,76.1,67.8,53.9,66.5,56.7,49.7,95,70,41,30.13,29.80,5,1,10,0.00
2013-8-24,77.6,60.9,46.1,56.7,51.1,45.0,98,74,36,30.32,30.13,3,0,6,0.00
2013-8-25,78.8,63.2,47.8,60.5,54.4,47.0,100,76,44,30.36,30.14,3,0,5,0.01
2013-8-26,77.9,68.8,61.0,69.1,64.5,57.1,98,87,71,30.15,29.84,4,0,9,0.16
2013-8-27,83.5,72.7,64.3,72.4,67.8,63.4,99,86,58,29.88,29.81,1,0,4,0.00
2013-8-28,83.0,70.2,62.8,72.1,66.7,62.2,100,90,62,29.99,29.82,3,0,5,2.50
2013-8-29,66.6,63.8,60.8,65.6,62.8,59.9,99,97,90,30.07,29.94,1,0,4,0.03
2013-8-30,83.8,69.5,60.0,70.1,64.7,59.4,99,87,58,30.01,29.77,2,0,5,0.00
2013-8-31,77.8,71.3,66.1,73.8,69.2,64.9,99,93,85,29.80,29.72,3,0,8,0.06
2013-9-1,82.1,74.0,67.2,74.2,69.8,66.0,99,88,69,29.85,29.75,2,0,4,0.11
2013-9-2,73.8,70.0,66.3,71.4,68.9,65.4,99,96,88,29.85,29.68,3,0,19,0.77
2013-9-3,74.4,67.1,61.1,68.4,63.6,58.1,99,89,69,29.78,29.68,2,0,5,0.01
2013-9-4,76.7,66.6,56.7,62.4,58.2,54.3,97,77,47,29.88,29.77,3,1,10,0.00
2013-9-5,66.3,59.1,45.3,59.2,49.9,40.3,97,74,39,30.14,29.83,5,1,10,0.02
2013-9-6,67.2,52.9,40.3,51.3,44.4,39.3,97,77,44,30.24,30.06,3,0,6,0.00
2013-9-7,71.3,58.7,45.9,57.2,51.1,44.8,97,78,45,30.07,29.82,4,1,9,0.02
2013-9-8,63.6,58.1,46.5,57.7,48.9,40.5,93,72,51,30.08,29.73,6,2,12,0.00
2013-9-9,70.4,54.1,40.2,53.5,45.9,39.1,97,77,38,30.22,30.08,4,1,8,0.00
2013-9-10,71.0,59.0,48.0,68.0,57.9,47.1,100,96,90,30.12,30.00,1,0,3,0.14
2013-9-11,90.8,75.5,63.5,76.8,69.8,62.9,100,85,55,30.04,29.88,4,1,9,0.10
2013-9-12,77.5,69.6,65.1,74.3,68.2,64.4,99,95,86,29.90,29.68,4,0,5,0.53
2013-9-21,72.2,68.2,64.9,63.1,60.9,54.9,92,78,59,29.86,29.67,7,3,14,0.01
2013-9-22,66.5,60.2,47.9,64.5,54.4,42.3,98,82,59,29.83,29.56,4,1,10,0.88
2013-9-23,55.6,48.3,44.3,43.5,41.1,39.5,87,76,61,30.00,29.83,6,2,15,0.00
2013-9-24,62.0,51.9,45.8,46.2,42.9,39.9,84,72,51,29.98,29.84,4,2,13,0.00
2013-9-25,64.6,55.1,44.5,52.3,47.8,43.0,96,77,61,29.99,29.87,4,1,10,0.00
2013-9-26,68.3,53.9,41.0,53.2,47.1,40.2,98,80,50,30.14,29.99,2,0,6,0.00
2013-9-27,68.2,55.9,48.5,56.9,51.2,47.4,97,86,57,30.26,30.14,1,0,3,0.00
2013-9-28,72.5,56.6,44.1,58.9,50.8,43.6,99,83,51,30.34,30.25,2,0,6,0.00
2013-9-29,69.9,54.8,44.6,57.5,49.6,43.9,99,85,51,30.26,30.09,3,0,4,0.01
2013-9-30,71.3,53.7,42.0,56.1,48.3,41.5,99,85,49,30.12,29.96,2,0,4,0.00
2013-10-1,75.4,58.1,42.2,59.2,51.8,41.7,99,83,49,29.98,29.84,4,0,9,0.01
2013-10-2,76.3,62.7,49.9,61.5,56.3,49.1,99,82,55,29.93,29.80,4,0,13,0.01
2013-10-3,74.0,59.6,48.7,55.9,51.7,46.7,98,79,39,30.07,29.93,2,0,5,0.01
2013-10-4,67.2,55.5,44.2,57.3,52.0,43.3,99,89,63,30.10,30.03,1,0,1,0.00
2013-10-5,63.0,58.8,55.8,56.3,53.2,47.2,97,82,61,30.11,30.05,0,0,2,0.00
2013-10-6,57.2,51.8,48.1,55.5,48.2,43.1,98,88,67,30.25,30.11,2,0,4,0.29
2013-10-7,69.3,56.7,50.2,68.2,55.5,48.8,100,96,77,30.15,29.70,9,1,15,0.70
2013-10-8,60.9,51.2,38.0,49.0,42.9,36.7,97,76,43,30.39,29.88,5,1,11,0.00
2013-10-9,62.4,46.0,34.4,47.9,39.8,33.6,100,82,47,30.49,30.38,2,0,3,0.00
2013-10-10,62.9,48.7,37.4,51.8,44.5,36.6,99,87,56,30.38,30.18,1,0,2,0.00
2013-10-11,68.4,52.5,42.6,55.8,47.2,41.8,99,85,44,30.19,30.12,1,0,3,0.01
2013-10-12,55.1,49.1,40.2,53.2,47.6,39.4,99,95,89,30.41,30.18,1,0,7,0.00
2013-10-13,56.1,48.2,40.0,51.0,45.2,39.2,100,90,77,30.46,30.38,1,0,5,0.01
2013-10-14,67.5,47.8,40.1,54.0,44.8,39.2,99,91,61,30.39,30.23,1,0,3,0.00
2013-10-15,62.7,57.7,51.4,55.8,53.8,50.3,98,87,74,30.26,30.17,2,0,3,0.00
2013-10-16,60.0,54.1,47.1,52.3,50.7,46.1,97,89,68,30.17,29.89,3,0,8,0.00
2013-10-17,70.7,55.8,46.5,57.1,49.6,45.7,99,82,48,29.88,29.69,4,1,8,0.01
2013-10-18,62.4,54.6,42.0,53.4,48.6,39.3,98,81,59,29.88,29.57,5,1,7,0.22
2013-10-19,65.3,49.3,35.6,48.5,42.5,34.6,98,80,49,29.95,29.72,3,0,5,0.01
2013-10-20,57.2,49.1,38.7,47.6,40.4,34.8,98,74,45,29.99,29.66,5,1,14,0.01
2013-10-21,63.4,47.2,33.8,46.9,40.4,32.8,98,80,47,30.09,29.94,5,0,8,0.01
2013-10-22,55.6,45.2,36.0,52.4,42.6,34.4,98,91,72,29.94,29.70,1,0,5,0.02
2013-10-23,53.1,42.3,34.2,39.6,34.8,29.8,98,77,42,29.78,29.57,3,0,4,0.01
2013-10-24,49.4,41.6,31.6,36.6,33.2,29.6,94,73,53,29.86,29.63,5,1,12,0.00
2013-10-25,43.1,32.3,28.1,36.8,29.9,26.0,98,91,67,30.12,29.86,4,0,12,0.01
2013-10-26,48.4,39.2,26.6,36.3,30.4,25.1,97,73,49,30.13,29.84,6,1,11,0.01
2013-10-27,53.4,42.7,29.3,38.3,33.6,27.2,92,71,48,30.02,29.76,4,1,7,0.00
2013-10-28,54.0,38.9,28.1,38.4,30.1,21.5,96,73,53,30.35,30.03,9,2,13,0.00
2013-10-29,46.7,32.9,22.2,27.9,22.4,16.6,94,69,33,30.45,30.34,3,0,5,0.00
2013-10-30,48.3,35.4,26.8,35.9,29.6,22.3,95,80,59,30.36,30.19,3,0,5,0.00
2013-10-31,49.8,38.2,29.1,49.5,37.4,28.0,99,97,93,30.25,29.73,0,0,2,0.30
2013-11-1,66.0,59.7,48.1,61.7,55.1,43.6,99,85,58,29.73,29.35,9,2,15,0.37
2013-11-2,62.0,48.6,36.7,47.4,42.6,35.9,98,82,51,29.77,29.58,3,0,8,0.10
2013-11-3,41.6,36.3,28.5,37.7,23.5,15.0,87,61,37,30.42,29.78,7,2,13,0.01
2013-11-4,42.6,30.4,22.4,22.2,18.9,15.5,89,65,36,30.71,30.43,3,0,5,0.00
2013-11-5,48.2,23.7,23.4,32.0,-19.0,-99.9,94,45,51,30.71,30.49,4,-369,6,0.00
2013-11-6,59.0,17.2,32.9,45.7,-50.8,-99.9,95,26,60,30.48,29.95,7,-650,14,0.00
2013-11-7,55.3,5.0,52.9,52.0,-85.8,-99.9,90,8,85,29.96,29.65,4,-905,4,0.00
2013-11-8,42.3,24.2,32.3,33.5,-17.9,-99.9,85,44,60,30.05,29.79,6,-359,10,0.01
2013-11-9,41.5,36.5,31.6,29.5,24.7,21.7,82,63,48,30.17,30.01,5,1,11,0.00
2013-11-10,42.7,37.5,33.2,39.7,35.1,28.9,97,91,76,30.00,29.71,3,0,10,0.08
2013-11-11,49.4,41.4,35.4,34.5,30.0,26.6,81,65,43,30.06,29.83,5,2,13,0.00
2013-11-12,43.6,31.4,26.4,35.8,21.6,16.1,86,67,57,30.17,29.83,8,3,12,0.00
2013-11-13,32.1,26.9,21.2,20.9,15.0,11.1,76,61,45,30.29,30.09,6,2,12,0.00
2013-11-14,47.3,34.2,24.7,30.4,24.8,20.2,93,70,49,30.09,30.02,4,0,8,0.00
2013-11-15,56.4,35.5,23.5,34.5,26.4,22.0,95,74,28,30.19,30.09,3,0,4,0.00
2013-11-16,59.0,39.3,28.9,32.8,29.4,27.1,94,72,32,30.32,30.18,2,0,5,0.00
2013-11-17,43.9,36.9,26.9,43.4,35.9,25.4,100,96,91,30.32,29.86,0,0,2,0.34
2013-11-18,60.6,50.4,42.7,53.5,43.0,32.4,99,78,48,29.85,29.49,5,1,9,0.50
2013-11-19,45.3,35.0,29.6,31.8,21.8,16.9,73,58,50,30.29,29.61,10,4,22,0.00
2013-11-20,38.4,30.4,22.5,19.5,16.6,14.1,80,57,38,30.63,30.29,5,1,10,0.00
2013-11-21,45.6,30.2,17.3,24.2,18.3,9.9,93,65,25,30.65,30.36,3,0,6,0.00
2013-11-22,38.4,35.1,30.8,37.4,32.7,24.0,97,91,73,30.35,29.82,0,0,1,0.11
2013-11-23,39.0,34.0,25.2,27.9,22.7,17.4,91,65,43,29.91,29.74,8,2,11,0.02
2013-11-24,25.1,19.8,15.9,18.4,6.4,-1.4,80,56,44,30.17,29.76,12,6,22,0.00
2013-11-25,28.2,20.6,13.2,15.5,3.9,-3.4,70,49,32,30.37,30.18,7,2,17,0.00
2013-11-26,34.5,29.9,25.3,30.7,25.6,15.2,95,84,65,30.30,30.09,1,0,4,0.03
2013-11-27,46.8,39.0,32.1,46.5,37.6,29.0,100,95,80,30.08,29.25,10,2,18,2.13
2013-11-28,34.4,26.6,16.8,30.1,16.1,8.6,84,65,48,30.41,29.39,6,2,13,0.00
2013-11-29,27.4,18.4,11.7,12.4,9.7,6.4,99,71,43,30.76,30.41,6,1,13,0.00
2013-11-30,29.2,19.5,6.6,20.1,11.7,3.8,90,73,50,30.82,30.43,4,1,11,0.00
2013-12-1,36.0,31.9,26.8,32.4,26.4,18.3,90,80,70,30.43,30.04,0,0,2,0.00
2013-12-2,41.3,36.0,32.1,36.6,33.5,30.4,96,91,83,30.04,29.91,1,0,2,0.00
2013-12-3,44.7,35.9,30.8,36.5,32.8,29.8,98,89,69,29.94,29.86,3,0,6,0.00
2013-12-4,40.1,32.2,25.6,31.2,26.3,23.2,93,79,62,30.19,29.93,3,1,8,0.00
2013-12-5,35.6,33.1,24.9,34.8,31.7,23.4,98,94,88,30.22,29.90,0,0,0,0.08
2013-12-6,46.1,39.8,33.3,45.8,36.1,26.2,99,87,67,30.13,29.85,4,1,9,0.10
2013-12-7,34.4,30.7,20.3,30.3,22.6,16.0,92,73,53,30.43,30.07,7,1,13,0.00
2013-12-8,28.1,24.5,19.5,18.2,15.4,13.0,90,69,54,30.57,30.43,3,0,5,0.00
2013-12-9,28.3,25.8,22.9,27.3,22.4,15.5,98,88,65,30.50,29.86,2,0,5,0.00
2013-12-10,34.4,28.0,17.1,29.8,22.6,11.4,97,81,59,29.93,29.77,3,0,11,0.00
2013-12-11,29.5,22.0,10.8,20.1,14.0,8.4,92,72,54,30.14,29.93,5,1,12,0.00
2013-12-12,20.0,11.2,1.8,16.2,4.0,-1.2,99,74,45,30.28,30.01,6,1,9,0.00
2013-12-13,21.7,9.6,0.8,17.0,4.1,-3.6,93,79,61,30.43,29.94,6,1,10,0.00
2013-12-14,12.9,7.6,1.8,9.1,-0.7,-6.4,89,69,46,30.62,30.25,5,1,9,0.00
2013-12-15,27.0,19.2,11.5,25.4,17.0,8.9,100,91,88,30.25,29.47,8,2,15,0.00
2013-12-16,23.0,15.5,5.3,17.0,7.1,-2.5,93,71,50,30.21,29.69,7,2,13,0.04
2013-12-17,14.4,4.9,-10.2,11.8,-0.0,-13.9,92,80,56,30.28,30.03,2,0,4,0.00
2013-12-18,30.4,19.8,10.6,20.2,15.1,8.0,95,82,65,30.03,29.91,5,1,9,0.00
2013-12-19,37.5,27.0,18.2,27.3,22.6,16.3,100,84,59,30.08,29.92,3,0,6,0.05
2013-12-20,38.3,33.2,29.2,33.2,30.2,26.6,96,89,73,30.10,29.90,1,0,1,0.12
2013-12-21,43.5,36.0,33.6,39.0,34.5,32.6,100,95,80,29.92,29.84,0,0,1,0.27
2013-12-22,39.9,34.2,31.9,39.3,33.5,31.4,98,97,97,30.03,29.79,4,1,5,0.23
2013-12-23,36.0,32.8,30.8,35.6,32.3,30.3,99,98,95,30.11,29.97,3,0,7,0.32
2013-12-24,34.5,27.0,16.0,33.0,19.6,10.7,94,74,59,30.21,30.05,5,1,9,0.00
2013-12-25,20.7,12.5,6.0,10.5,3.9,-2.6,87,69,51,30.53,30.21,6,1,10,0.00
2013-12-26,23.9,16.7,10.6,22.5,13.7,8.0,98,88,74,30.49,30.11,0,0,1,0.00
2013-12-27,32.9,11.0,8.3,23.8,-40.5,-99.9,95,42,60,30.24,30.17,4,-472,7,0.10
2013-12-28,38.7,7.8,24.6,32.4,-71.3,-99.9,93,18,74,30.18,29.95,3,-778,6,0.03
2013-12-29,-200.0,0.0,200.0,-99.9,-99.9,-99.9,0,0,100,30.00,29.50,0,-999,0,0.00
2013-12-30,37.5,9.0,21.9,33.1,-62.6,-99.9,89,24,74,30.17,29.50,7,-697,14,0.13
2013-12-31,16.6,3.9,-1.2,7.0,-65.7,-99.9,83,22,61,30.16,30.01,2,-666,3,0.00
2014-1-1,-200.0,0.0,200.0,-99.9,-99.9,-99.9,0,0,100,30.39,30.13,0,-999,0,0.01
2014-1-2,10.3,2.0,0.8,6.7,-49.8,-99.9,85,42,83,30.38,29.95,3,-499,7,0.00